King Salmon, AK

11:41 AM AKST on December 07, 2016 (GMT -0900)
King Salmon

Weather History for PAKN - December, 2013

Change the Weather History Date:

Friday, December 27, 2013

  Actual Average Record
Temperature  
Mean Temperature 23 °F 17 °F  
Max Temperature 34 °F 25 °F 46 °F (1990)
Min Temperature 12 °F 10 °F -31 °F (1954)
Degree Days  
Heating Degree Days 42 48  
Month to date heating degree days 1217 1246  
Since 1 July heating degree days 4115 4621  
Cooling Degree Days 0    
Month to date cooling degree days 0  
Year to date cooling degree days 4  
Moisture  
Dew Point 23 °F    
Average Humidity 0    
Maximum Humidity 0    
Minimum Humidity 0    
Precipitation  
Precipitation 0.04 in 0.03 in 0.38 in (1929)
Month to date precipitation 1.07 1.10  
Year to date precipitation 24.48 19.36  
Snow  
Snow 0.40 in 0.20 in 5.30 in (1989)
Month to date snowfall 3.2 8.5  
Since 1 July snowfall 14.8 18.3  
Snow Depth T in    
Sea Level Pressure  
Sea Level Pressure 29.62 in    
Wind  
Wind Speed 7 mph (NNW)    
Max Wind Speed 10 mph    
Max Gust Speed 10 mph    
Visibility 10 miles    
Events Rain , Snow    
T = Trace of Precipitation, MM = Missing Value Source: NWS Daily Summary

Daily Weather History Graph

Daily Weather History Graph

Search for Another Location

Airport or City:

Trip Planner

Search our weather history database for the weather conditions in past years. The results will help you decide how hot, cold, wet, or windy it might be!

Date:

Astronomy

Dec. 27, 2013 Rise Set
Actual Time 10:18 AM AKST 4:37 PM AKST
Civil Twilight 9:24 AM AKST 5:31 PM AKST
Nautical Twilight 8:31 AM AKST 6:25 PM AKST
Astronomical Twilight 7:41 AM AKST 7:14 PM AKST
Moon 4:13 AM AKST (12/27) 1:39 PM AKST (12/27)
Length of Visible Light 8h 06m
Length of Day
6h 19m
Waning Crescent, 27% of the Moon is Illuminated
Dec 27
Waning Crescent
Jan 1
New
Jan 7
First Quarter
Jan 15
Full
Jan 23
Last Quarter

Hourly Weather History & Observations

Time (AKST) Temp. Windchill Dew Point Humidity Pressure Visibility Wind Dir Wind Speed Gust Speed Precip Events Conditions
12:54 AM 12.9 °F -0.2 °F 9.7 °F 87% 29.70 in 10.0 mi NNW 10.4 mph - N/A   Overcast
1:54 AM 13.6 °F 1.6 °F 10.9 °F 89% 29.68 in 10.0 mi NNW 9.2 mph - N/A   Overcast
2:54 AM 13.6 °F 1.6 °F 10.9 °F 89% 29.67 in 10.0 mi NNW 9.2 mph - N/A   Overcast
3:54 AM 14.7 °F 2.1 °F 10.8 °F 84% 29.67 in 10.0 mi NNW 10.4 mph - N/A   Overcast
4:54 AM 14.7 °F 2.1 °F 10.8 °F 84% 29.66 in 10.0 mi NNW 10.4 mph - N/A   Overcast
5:54 AM - - - N/A% 29.65 in - North - - N/A   Unknown
6:54 AM 18.0 °F 6.9 °F 15.6 °F 91% 29.65 in 10.0 mi NNW 9.2 mph - N/A   Overcast
7:54 AM 18.0 °F 6.9 °F 15.6 °F 91% 29.64 in 10.0 mi NNW 9.2 mph - N/A Snow Light Snow
8:54 AM 18.0 °F 6.1 °F 16.2 °F 93% 29.64 in 10.0 mi NNW 10.4 mph - N/A Snow Light Snow
9:54 AM 18.0 °F 6.1 °F 16.2 °F 93% 29.63 in 10.0 mi NNW 10.4 mph - N/A   Overcast
10:54 AM 20.3 °F 9.8 °F 18.7 °F 93% 29.62 in 10.0 mi North 9.2 mph - N/A   Mostly Cloudy
11:54 AM 23.7 °F 14.7 °F 22.1 °F 94% 29.61 in 10.0 mi NNW 8.1 mph - N/A   Mostly Cloudy
12:54 PM 27.1 °F 18.2 °F 24.6 °F 90% 29.59 in 10.0 mi NNW 9.2 mph - N/A   Mostly Cloudy
1:54 PM 28.9 °F 21.1 °F 26.2 °F 90% 29.58 in 10.0 mi North 8.1 mph - N/A   Overcast
2:54 PM 31.6 °F 25.1 °F 29.5 °F 92% 29.56 in 10.0 mi North 6.9 mph - N/A Snow Light Snow
3:54 PM 33.8 °F 28.6 °F 30.0 °F 86% 29.56 in 10.0 mi NNE 5.8 mph - N/A Snow Light Snow
4:54 PM 33.4 °F 29.1 °F 32.0 °F 94% 29.55 in 4.0 mi NE 4.6 mph - N/A Snow Light Snow
5:54 PM 33.6 °F 26.2 °F 32.9 °F 97% 29.56 in 10.0 mi West 9.2 mph - N/A Rain Light Rain
6:54 PM 33.6 °F 26.8 °F 32.9 °F 97% 29.57 in 10.0 mi West 8.1 mph - N/A Rain Light Rain
7:54 PM 33.1 °F - 32.7 °F 99% 29.59 in 10.0 mi Calm Calm - N/A   Overcast
8:54 PM 33.1 °F - 32.7 °F 99% 29.61 in 10.0 mi Calm Calm - N/A   Overcast
9:54 PM 32.9 °F - 32.7 °F 99% 29.64 in 10.0 mi Calm Calm - N/A   Overcast
10:54 PM 32.9 °F - 32.4 °F 98% 29.66 in 10.0 mi Calm Calm - N/A   Overcast
11:54 PM 33.1 °F - 32.0 °F 96% 29.69 in 10.0 mi Calm Calm - N/A   Overcast